TimeCDT,TemperatureF,Dew PointF,Humidity,Sea Level PressureIn,VisibilityMPH,Wind Direction,Wind SpeedMPH,Gust SpeedMPH,PrecipitationIn,Events,Conditions,WindDirDegrees,DateUTC
12:53 AM,48.0,14.0,26,29.94,10.0,South,18.4,-,N/A,,Clear,190,2013-03-27 05:53:00
1:53 AM,45.0,14.0,29,29.94,10.0,South,15.0,-,N/A,,Clear,190,2013-03-27 06:53:00
2:53 AM,42.1,16.0,35,29.93,10.0,SSW,12.7,-,N/A,,Clear,200,2013-03-27 07:53:00
3:53 AM,44.1,16.0,32,29.89,10.0,SSW,10.4,-,N/A,,Clear,200,2013-03-27 08:53:00
4:53 AM,43.0,16.0,34,29.88,10.0,SSW,9.2,-,N/A,,Clear,200,2013-03-27 09:53:00
5:53 AM,43.0,17.1,35,29.88,10.0,SW,10.4,-,N/A,,Clear,230,2013-03-27 10:53:00
6:53 AM,37.0,18.0,46,29.91,10.0,WSW,9.2,-,N/A,,Clear,250,2013-03-27 11:53:00
7:53 AM,37.0,18.0,46,29.94,10.0,Variable,4.6,-,N/A,,Clear,0,2013-03-27 12:53:00
8:53 AM,42.1,19.9,41,29.96,10.0,WNW,6.9,-,N/A,,Clear,300,2013-03-27 13:53:00
9:53 AM,51.1,21.9,32,29.96,10.0,WNW,5.8,-,N/A,,Clear,290,2013-03-27 14:53:00
10:53 AM,57.0,21.9,26,29.96,10.0,NE,8.1,-,N/A,,Clear,40,2013-03-27 15:53:00
11:53 AM,60.1,24.1,25,29.97,10.0,North,8.1,-,N/A,,Clear,10,2013-03-27 16:53:00
12:53 PM,62.1,21.9,21,29.98,10.0,ENE,4.6,-,N/A,,Clear,70,2013-03-27 17:53:00
1:53 PM,66.0,21.9,19,29.96,10.0,North,9.2,-,N/A,,Clear,350,2013-03-27 18:53:00
2:53 PM,68.0,21.0,17,29.95,10.0,Calm,Calm,-,N/A,,Clear,0,2013-03-27 19:53:00
3:53 PM,69.1,19.9,15,29.93,10.0,North,9.2,-,N/A,,Clear,10,2013-03-27 20:53:00
4:53 PM,70.0,21.0,16,29.92,10.0,NE,12.7,-,N/A,,Clear,40,2013-03-27 21:53:00
5:53 PM,66.9,21.0,17,29.93,10.0,ENE,16.1,-,N/A,,Clear,70,2013-03-27 22:53:00
6:53 PM,64.9,21.9,19,29.96,10.0,ENE,19.6,-,N/A,,Clear,60,2013-03-27 23:53:00
7:53 PM,59.0,23.0,25,29.99,10.0,ENE,15.0,-,N/A,,Clear,70,2013-03-28 00:53:00
8:53 PM,54.0,25.0,33,30.02,10.0,ENE,11.5,-,N/A,,Clear,70,2013-03-28 01:53:00
9:53 PM,51.1,25.0,36,30.01,10.0,ENE,13.8,-,N/A,,Clear,70,2013-03-28 02:53:00
10:53 PM,48.9,25.0,39,30.02,10.0,ENE,16.1,-,N/A,,Clear,60,2013-03-28 03:53:00
11:53 PM,46.9,25.0,42,30.02,10.0,ENE,15.0,-,N/A,,Clear,70,2013-03-28 04:53:00